Vienna, Austria

6:24 AM CET on February 20, 2017 (GMT +0100)
Schwechat

Weather History for LOWW - October, 2013

Change the Weather History Date:

Thursday, October 10, 2013

  Actual Average Record
Temperature  
Mean Temperature 56 °F -  
Max Temperature 61 °F 53 °F 73 °F (1997)
Min Temperature 48 °F 40 °F 33 °F (2010)
Degree Days  
Heating Degree Days 10    
Growing Degree Days 6 (Base 50)    
Moisture  
Dew Point 52 °F    
Average Humidity 85    
Maximum Humidity 94    
Minimum Humidity 72    
Precipitation  
Precipitation 0.12 in - - ()
Sea Level Pressure  
Sea Level Pressure 29.84 in    
Wind  
Wind Speed 9 mph ()    
Max Wind Speed 21 mph    
Max Gust Speed 30 mph    
Visibility 4.9 miles    
Events Rain    
Averages and records for this station are not official NWS values.
T = Trace of Precipitation, MM = Missing Value Source: Averaged Metar Reports

Daily Weather History Graph

Daily Weather History Graph

Search for Another Location

Airport or City:

Trip Planner

Search our weather history database for the weather conditions in past years. The results will help you decide how hot, cold, wet, or windy it might be!

Date:

Astronomy

Oct. 10, 2013 Rise Set
Actual Time 7:05 AM CEST 6:14 PM CEST
Civil Twilight 6:34 AM CEST 6:45 PM CEST
Nautical Twilight 5:58 AM CEST 7:21 PM CEST
Astronomical Twilight 5:22 AM CEST 7:57 PM CEST
Moon 12:59 PM CEST (10/10) 10:16 PM CEST (10/10)
Length of Visible Light 12h 11m
Length of Day
11h 08m
Waxing Crescent, 33% of the Moon is Illuminated
Oct 10
Waxing Crescent
Oct 12
First Quarter
Oct 19
Full
Oct 27
Last Quarter
Nov 3
New

Hourly Weather History & Observations

Time (CEST) Temp. Dew Point Humidity Pressure Visibility Wind Dir Wind Speed Gust Speed Precip Events Conditions
12:20 AM 55.4 °F 51.8 °F 88% 29.98 in 5.0 mi South 3.5 mph - N/A   Mostly Cloudy
12:50 AM 55.4 °F 51.8 °F 88% 29.98 in 5.0 mi SSE 3.5 mph - N/A   Mostly Cloudy
1:20 AM 55.4 °F 51.8 °F 88% 29.98 in 5.0 mi Variable 2.3 mph - N/A   Mostly Cloudy
1:50 AM 55.4 °F 53.6 °F 94% 29.98 in 6.2 mi South 6.9 mph - N/A   Mostly Cloudy
2:00 AM 55 °F 53 °F 90% 29.98 in 6 mi South 6.7 mph - -   Overcast
2:20 AM 55.4 °F 51.8 °F 88% 29.95 in 5.0 mi SE 5.8 mph - N/A   Mostly Cloudy
2:50 AM 53.6 °F 51.8 °F 94% 29.95 in 5.0 mi SE 4.6 mph - N/A   Mostly Cloudy
3:20 AM 53.6 °F 51.8 °F 94% 29.92 in 5.0 mi SSE 6.9 mph - N/A   Mostly Cloudy
3:50 AM 55.4 °F 51.8 °F 88% 29.92 in 5.0 mi SW 4.6 mph - N/A   Mostly Cloudy
4:20 AM 53.6 °F 51.8 °F 94% 29.92 in 3.7 mi WSW 4.6 mph - N/A   Mostly Cloudy
4:50 AM 53.6 °F 51.8 °F 94% 29.92 in 3.7 mi Variable 2.3 mph - N/A   Mostly Cloudy
5:00 AM 54 °F 52 °F 90% 29.92 in 4 mi 2.2 mph - -   Overcast
5:20 AM 53.6 °F 51.8 °F 94% 29.89 in - Variable 2.3 mph - N/A   Mostly Cloudy
5:50 AM 53.6 °F 51.8 °F 94% 29.89 in - Variable 1.2 mph - N/A Rain Light Rain
6:20 AM 53.6 °F 51.8 °F 94% 29.89 in 2.8 mi ESE 3.5 mph - N/A Rain Light Rain
6:50 AM 53.6 °F 50.0 °F 88% 29.89 in 3.1 mi ESE 4.6 mph - N/A   Mostly Cloudy
7:20 AM 53.6 °F 50.0 °F 88% 29.89 in 3.1 mi East 4.6 mph - N/A   Mostly Cloudy
7:50 AM 53.6 °F 50.0 °F 88% 29.86 in 3.1 mi ESE 4.6 mph - N/A   Mostly Cloudy
8:00 AM 53 °F 51 °F 89% 29.88 in 3 mi ESE 4.5 mph - -   Mist
8:20 AM 53.6 °F 51.8 °F 94% 29.86 in 2.8 mi ESE 6.9 mph - N/A   Mostly Cloudy
8:50 AM 53.6 °F 51.8 °F 94% 29.86 in 3.7 mi ESE 5.8 mph - N/A   Mostly Cloudy
9:20 AM 55.4 °F 51.8 °F 88% 29.86 in 3.7 mi ESE 6.9 mph - N/A   Mostly Cloudy
9:50 AM 55.4 °F 51.8 °F 88% 29.86 in 3.7 mi SE 11.5 mph - N/A   Mostly Cloudy
10:20 AM 57.2 °F 53.6 °F 88% 29.86 in 4.3 mi SE 13.8 mph - N/A   Mostly Cloudy
10:50 AM 59.0 °F 53.6 °F 82% 29.83 in 5.6 mi SE 15.0 mph - N/A   Scattered Clouds
11:00 AM 59 °F 53 °F 75% 29.84 in 6 mi SE 15.7 mph - -   Scattered Clouds
11:20 AM 60.8 °F 53.6 °F 77% 29.83 in 5.6 mi SE 18.4 mph - N/A   Scattered Clouds
11:50 AM 60.8 °F 53.6 °F 77% 29.80 in 5.6 mi SE 18.4 mph - N/A   Mostly Cloudy
12:20 PM 60.8 °F 53.6 °F 77% 29.80 in 5.6 mi SE 19.6 mph - N/A   Mostly Cloudy
12:50 PM 60.8 °F 53.6 °F 77% 29.80 in 5.6 mi SE 18.4 mph - N/A   Mostly Cloudy
1:20 PM 57.2 °F 51.8 °F 82% 29.80 in 3.7 mi SE 18.4 mph - N/A   Mostly Cloudy
1:50 PM 59.0 °F 53.6 °F 82% 29.80 in 3.7 mi SE 19.6 mph - N/A   Mostly Cloudy
2:00 PM 58 °F 53 °F 77% 29.80 in 4 mi SE 20.1 mph - -   Scattered Clouds
2:20 PM 59.0 °F 53.6 °F 82% 29.77 in 3.7 mi SE 17.3 mph - N/A   Mostly Cloudy
2:50 PM 59.0 °F 53.6 °F 82% 29.77 in 3.7 mi SE 18.4 mph 29.9 mph N/A   Mostly Cloudy
3:20 PM 59.0 °F 53.6 °F 82% 29.77 in 3.1 mi SE 20.7 mph - N/A   Mostly Cloudy
3:50 PM 59.0 °F 53.6 °F 82% 29.77 in 3.7 mi SE 19.6 mph - N/A   Mostly Cloudy
4:20 PM 59.0 °F 53.6 °F 82% 29.74 in 3.7 mi SE 17.3 mph - N/A   Mostly Cloudy
4:50 PM 59.0 °F 53.6 °F 82% 29.74 in 3.7 mi SE 17.3 mph - N/A   Mostly Cloudy
5:00 PM 59 °F 54 °F 77% 29.75 in 4 mi SE 17.9 mph - -   Partly Cloudy
5:20 PM 59.0 °F 53.6 °F 82% 29.74 in 3.7 mi SE 13.8 mph - N/A   Mostly Cloudy
5:50 PM 59.0 °F 53.6 °F 82% 29.74 in 4.3 mi SE 19.6 mph - N/A   Mostly Cloudy
6:20 PM 59.0 °F 53.6 °F 82% 29.74 in 5.0 mi SE 16.1 mph - N/A   Mostly Cloudy
6:50 PM 59.0 °F 53.6 °F 82% 29.74 in 5.6 mi SE 18.4 mph - N/A   Mostly Cloudy
7:20 PM 59.0 °F 53.6 °F 82% 29.74 in 5.6 mi SE 19.6 mph - N/A   Mostly Cloudy
7:50 PM 60.8 °F 53.6 °F 77% 29.74 in 5.6 mi SE 16.1 mph - N/A   Mostly Cloudy
8:00 PM 60 °F 54 °F 76% 29.76 in 6 mi SE 15.7 mph - -   Scattered Clouds
8:20 PM 59.0 °F 53.6 °F 82% 29.74 in 5.6 mi ESE 16.1 mph - N/A   Mostly Cloudy
8:50 PM 57.2 °F 53.6 °F 88% 29.77 in 5.6 mi ESE 12.7 mph - N/A   Mostly Cloudy
9:20 PM 59.0 °F 53.6 °F 82% 29.77 in 5.6 mi ESE 12.7 mph - N/A   Mostly Cloudy
9:50 PM 59.0 °F 55.4 °F 88% 29.77 in 5.6 mi SE 16.1 mph - N/A   Mostly Cloudy
10:20 PM 59.0 °F 55.4 °F 88% 29.80 in 5.0 mi SE 16.1 mph - N/A   Mostly Cloudy
10:50 PM 53.6 °F 46.4 °F 77% 29.83 in 6.2 mi WNW 15.0 mph 26.5 mph N/A   Mostly Cloudy
11:00 PM 53 °F 47 °F 72% 29.85 in 19 mi WNW 15.7 mph - -   Overcast
11:20 PM 50.0 °F 46.4 °F 87% 29.86 in 5.6 mi West 15.0 mph - N/A Rain Rain Showers
11:50 PM 48.2 °F 44.6 °F 87% 29.86 in 5.6 mi WNW 16.1 mph - N/A Rain Rain Showers